RH
36 50 74 73 77 80 74 64 46 36 32 26 22 19 18 18 15 15 28 47 55 54 45 40 48 98 100 100 98 100 100 100 100 100 100 100 100 100 100 100 100 100 100
40 47 77 81 73 77 80 76 59 38 26 26 20 22 20 16 16 17 15 18 48 61 66 71 60 55 84 100 100 85 80 89 100 100 100 100 100 100 100 100 100 100 100
43 52 67 86 84 82 82 79 73 55 46 36 31 23 27 27 25 18 15 18 20 47 65 77 85 95 81 78 99 100 99 84 89 100 100 100 100 100 100 100 100 100 100
47 48 58 71 92 88 77 94 84 74 62 52 40 31 30 41 42 23 16 16 16 22 50 76 100 100 100 100 100 99 75 97 99 94 100 100 100 100 100 100 100 100 100
53 51 53 68 81 93 88 87 93 89 76 66 51 46 86 79 61 56 25 20 17 20 32 69 87 100 100 100 100 100 100 88 64 86 83 100 100 100 100 100 100 100 100
64 61 58 58 78 89 93 97 93 94 92 79 72 73 74 76 79 63 52 27 28 22 25 58 82 98 100 100 100 100 100 92 100 81 66 68 95 100 100 100 100 100 100
77 60 67 66 62 85 90 89 100 98 94 81 81 73 82 65 82 82 65 54 41 39 30 30 73 100 100 100 100 100 100 100 100 100 98 93 75 65 99 100 100 100 100
81 68 73 71 69 67 85 92 88 99 96 100 96 84 89 94 66 98 87 77 71 61 46 37 40 77 100 100 100 100 100 100 100 100 100 97 89 85 68 91 100 100 100
80 85 78 91 82 80 79 87 82 82 84 100 100 93 85 94 89 91 93 93 89 77 87 48 42 47 80 100 100 100 100 100 100 100 100 100 85 85 77 81 61 88 100
74 76 81 82 92 81 81 84 87 84 82 85 100 100 100 99 97 89 100 100 100 100 89 86 62 67 77 93 100 100 100 100 100 100 100 100 100 100 83 87 70 58 46
87 83 79 77 92 87 76 80 81 90 92 81 83 98 100 100 100 98 83 98 90 100 100 100 87 83 82 76 100 100 100 100 100 99 100 100 100 100 96 76 72 68 56
100 86 91 76 83 98 83 75 87 85 97 99 79 88 83 100 100 100 100 85 100 97 100 100 87 84 88 85 100 100 100 100 100 100 100 100 100 100 100 100 86 78 63
96 98 85 94 79 84 98 84 78 92 96 99 100 96 100 94 100 100 100 100 98 100 100 94 100 100 97 100 100 100 100 100 100 100 100 100 100 100 100 100 100 100 100
100 100 99 90 98 81 87 97 85 82 92 99 100 100 100 97 94 94 100 100 100 100 99 100 100 100 100 100 100 100 100 100 100 100 100 100 100 100 100 100 100 100 100
100 100 100 100 79 92 82 86 100 86 88 96 100 99 99 100 98 100 98 100 100 100 100 99 95 100 100 100 100 100 100 100 100 100 100 100 100 100 100 100 100 100 99
100 100 100 98 74 75 70 84 87 95 78 91 95 96 99 95 94 86 86 86 89 99 100 100 100 100 100 100 100 100 100 100 100 100 100 100 100 100 100 100 100 100 100
100 100 88 75 78 67 59 44 54 69 72 62 76 99 91 98 97 87 90 81 74 82 88 100 100 100 100 100 100 100 100 100 100 100 100 100 100 100 100 100 100 100 100
94 99 50 50 62 57 50 22 31 38 46 41 36 54 96 98 93 97 95 89 84 79 72 77 86 97 98 96 95 100 100 100 100 100 100 100 100 100 100 100 96 100 100
100 78 32 31 33 27 28 18 19 22 26 29 26 28 40 80 89 99 98 94 93 84 77 75 69 68 75 86 92 91 92 84 92 95 100 100 100 100 94 88 97 100 98
86 36 20 18 19 19 19 18 17 19 19 20 22 24 27 38 64 86 98 98 91 84 88 74 63 60 59 64 71 71 74 78 85 85 84 84 90 99 99 90 94 99 91
41 21 17 17 18 19 19 18 18 18 19 19 21 23 26 30 44 62 68 78 83 70 72 73 73 72 62 63 54 53 59 63 66 66 73 75 66 66 69 72 71 76 76
22 18 17 17 18 18 19 19 19 20 20 21 22 23 23 26 35 42 49 48 46 41 35 36 42 50 56 62 54 54 54 51 45 47 54 58 56 56 55 55 56 50 46
18 18 18 18 18 17 18 19 20 21 21 22 22 24 27 28 31 30 27 27 28 30 29 28 29 32 35 42 42 45 47 48 44 34 37 39 40 43 47 49 51 52 53
18 18 18 18 18 18 18 19 19 20 21 22 23 24 24 24 26 25 26 30 32 33 33 34 34 36 36 35 34 35 31 27 23 21 20 21 21 20 20 19 19 21 24
18 17 17 18 18 18 18 19 19 20 20 21 22 21 21 21 22 24 26 28 31 32 34 34 32 32 32 30 27 26 24 22 20 18 17 16 15 15 15 14 13 12 11
17 17 17 17 18 18 18 18 18 19 20 20 21 22 24 26 29 33 34 30 28 27 25 24 23 22 21 21 20 18 17 16 15 14 14 14 13 12 12 12 13 12 12
Wind_Speed
19 25 35 39 44 45 45 42 42 47 53 57 67 79 80 82 89 104 113 115 112 109 106 103 97 95 97 96 100 99 94 89 90 92 92 89 87 85 84 83 79 78 79
22 21 29 35 37 38 39 36 38 41 42 41 43 48 61 77 90 93 95 111 118 116 112 106 103 101 94 95 94 102 103 99 99 98 96 97 97 93 92 88 86 86 84
31 25 28 36 37 35 34 36 37 36 37 36 37 42 40 55 74 88 97 100 115 122 119 113 107 102 97 98 100 98 99 102 98 95 99 100 98 101 101 98 95 92 89
39 30 25 31 36 38 34 37 37 36 35 37 36 37 38 43 51 59 72 88 103 118 122 118 111 105 96 89 95 94 101 103 100 102 97 100 102 102 101 102 103 100 98
49 37 29 27 34 38 40 35 36 36 35 37 34 32 28 38 41 42 52 67 88 102 119 122 117 110 102 98 91 94 96 94 99 105 107 105 102 104 101 101 102 101 99
52 44 36 30 30 39 40 39 38 36 36 34 33 31 31 32 27 35 42 52 72 92 104 119 120 114 107 107 93 63 71 85 95 99 100 107 106 105 105 107 107 106 104
56 48 40 35 31 32 39 38 37 40 38 34 32 30 30 30 24 27 33 37 51 73 90 103 117 117 115 106 101 82 75 85 89 89 95 98 100 107 105 108 110 112 110
54 47 47 41 36 32 34 39 39 38 38 36 33 31 30 31 25 23 24 30 39 56 76 92 102 117 117 112 109 104 85 71 70 88 92 94 98 101 103 106 105 108 109
59 51 46 44 40 37 36 38 40 40 37 36 37 35 33 32 28 21 18 25 29 43 58 84 94 101 115 117 111 108 104 94 93 89 97 96 95 98 101 101 105 108 108
63 60 54 48 44 39 37 38 43 44 40 37 36 36 36 34 33 28 21 18 23 34 49 66 83 91 100 114 117 111 103 103 103 92 93 89 88 93 97 98 106 108 108
69 63 59 53 49 46 39 38 38 44 47 41 38 37 32 37 36 36 29 27 23 23 44 55 74 85 89 101 110 113 111 107 104 103 93 92 94 94 96 99 101 103 106
76 66 60 55 51 49 46 40 39 39 45 49 45 39 37 35 36 35 35 34 28 24 30 59 63 76 87 88 101 104 107 111 108 102 98 94 95 95 94 94 99 102 105
76 70 68 58 54 49 48 43 40 40 43 49 51 48 44 42 40 39 40 41 37 35 36 39 48 69 77 84 94 100 106 114 115 116 110 106 106 106 99 97 98 100 101
79 78 77 65 55 53 49 46 43 43 44 48 54 55 54 51 50 47 46 47 48 46 46 48 50 53 66 86 97 104 112 114 119 118 121 119 117 114 118 114 108 107 106
92 90 87 74 58 52 51 47 45 43 46 49 52 58 62 62 60 58 56 55 54 55 58 58 58 63 64 80 94 101 110 115 120 116 116 116 122 123 124 124 122 121 119
98 96 92 76 62 56 53 51 48 46 46 51 55 57 63 66 68 68 67 66 65 63 67 72 72 71 75 85 95 103 109 114 117 117 120 124 122 122 125 124 125 126 125
100 92 84 71 68 63 59 55 52 48 49 51 56 60 60 65 70 73 74 75 74 74 75 75 78 79 78 84 94 101 103 114 119 117 124 125 127 130 129 131 129 132 133
87 87 80 73 68 66 63 58 54 53 53 54 56 59 63 65 66 73 78 81 81 81 82 83 86 87 88 90 93 100 104 112 115 120 126 127 131 135 136 135 139 137 140
93 85 78 72 69 64 62 60 57 55 55 57 57 59 63 67 69 73 76 81 84 86 89 91 91 92 95 98 99 101 105 114 120 123 123 128 133 141 141 141 139 139 145
89 81 74 69 66 63 61 59 58 57 57 58 59 60 62 66 70 73 75 81 85 89 92 94 93 95 97 101 105 109 112 114 115 126 133 132 137 138 144 147 148 149 153
85 77 72 68 65 63 60 59 58 58 59 59 60 61 63 66 68 72 74 77 82 87 94 98 101 102 100 102 104 109 114 119 123 126 127 135 144 145 151 154 154 154 157
79 73 70 68 66 63 61 60 59 59 59 59 60 61 63 65 67 69 74 78 82 85 88 92 96 99 100 106 106 107 109 114 116 121 128 135 139 141 144 146 149 150 153
76 71 68 65 64 62 61 61 60 60 60 60 61 62 65 67 68 71 73 77 80 83 86 89 92 94 97 101 104 107 110 113 116 115 118 121 125 129 135 141 146 148 151
72 69 67 65 63 62 60 60 60 60 61 62 63 64 66 68 71 73 75 76 79 82 85 87 90 94 97 100 103 106 108 109 111 112 114 117 120 122 125 126 128 131 134
70 69 69 67 65 63 61 60 60 60 61 62 64 65 67 70 71 73 75 77 79 80 83 85 87 90 94 97 100 102 105 108 110 111 112 114 115 117 119 120 122 122 122
71 70 69 67 65 63 62 61 60 60 61 63 65 67 69 70 71 72 75 76 78 80 83 85 88 91 93 96 100 102 104 106 108 108 110 112 113 114 115 116 118 119 120
Wind_Direction
306 263 251 252 250 247 248 254 257 255 254 253 257 257 254 247 243 239 234 232 230 229 230 232 232 231 231 233 236 234 236 235 238 240 240 239 240 244 246 249 250 248 250
325 298 263 260 259 257 256 259 266 265 260 265 265 258 252 245 242 240 238 234 230 229 229 230 232 232 230 230 236 240 241 240 240 242 241 242 243 244 246 246 247 248 249
337 318 285 270 269 268 265 268 275 281 283 284 287 278 264 249 245 242 239 233 231 228 228 229 230 234 234 233 235 236 240 242 242 243 244 244 244 245 245 245 248 249 249
348 327 306 277 270 273 269 271 276 284 293 294 299 292 274 262 254 251 245 235 230 228 226 227 228 230 233 236 239 242 239 238 241 240 240 243 244 244 246 247 248 249 250
348 342 325 295 273 271 276 276 278 283 291 301 312 315 294 275 267 256 249 235 229 228 227 226 227 228 228 235 238 244 242 240 240 241 241 240 242 245 244 245 246 248 249
344 345 336 320 286 270 272 278 280 282 287 297 305 309 305 293 282 268 254 239 230 225 225 226 226 227 226 229 229 233 239 242 242 243 245 243 243 243 245 246 246 248 249
344 339 339 330 314 283 271 271 275 278 280 284 291 299 309 297 288 289 272 250 235 228 225 226 225 226 228 226 226 231 240 241 243 244 245 245 246 244 245 245 248 248 249
338 338 341 334 326 305 280 270 270 268 277 281 286 289 298 307 295 302 283 257 234 227 227 224 225 225 225 226 226 230 235 233 242 243 244 247 249 246 246 243 246 247 249
335 331 334 336 327 318 298 280 269 267 264 271 280 283 288 297 301 297 300 282 252 237 227 226 224 225 225 225 225 226 231 235 240 245 245 249 250 248 248 248 248 246 247
339 332 326 329 329 320 306 290 276 268 263 261 267 277 281 288 293 290 288 287 271 252 233 226 225 224 226 225 226 228 231 234 237 239 244 244 249 250 249 248 249 249 248
334 333 325 320 322 322 312 300 286 270 264 260 260 262 271 275 280 288 282 281 261 251 227 225 224 223 226 226 225 227 229 233 237 238 241 245 248 249 249 251 251 253 252
330 328 328 318 316 318 311 305 294 277 264 262 261 257 259 262 265 271 270 271 268 260 235 239 236 227 228 227 224 227 232 234 235 238 238 241 244 247 249 250 252 253 253
329 328 326 322 313 310 312 303 297 286 269 260 259 259 257 256 255 256 256 261 265 253 258 238 241 240 230 225 224 226 229 231 235 238 239 242 246 247 249 251 253 253 254
326 325 323 317 313 306 304 304 297 289 277 264 257 254 254 255 254 252 251 250 253 252 245 247 250 244 238 230 225 226 229 232 235 237 240 243 246 247 248 249 252 253 252
324 322 320 315 306 303 299 296 296 288 281 270 262 256 254 252 251 250 250 248 247 242 243 246 246 241 239 233 233 235 236 236 237 238 241 243 246 249 251 252 256 258 258
320 319 319 314 308 302 299 296 292 287 279 274 267 261 256 255 254 251 249 247 245 244 241 242 245 245 242 236 235 238 240 241 241 241 242 244 246 250 251 254 255 256 257
318 317 316 312 308 305 302 297 289 282 276 272 267 264 262 258 257 255 253 252 249 247 245 244 245 245 244 241 240 238 243 243 242 244 244 245 248 249 251 253 254 255 256
319 317 315 310 305 303 300 297 290 282 276 270 269 266 263 263 260 257 255 254 253 252 250 247 245 244 245 245 242 241 243 244 244 246 246 245 249 250 251 253 253 254 255
318 315 312 308 304 300 296 294 288 282 275 271 269 268 265 263 263 262 260 257 255 254 253 252 251 249 247 245 245 245 245 244 245 245 246 247 250 250 251 251 254 257 258
316 313 310 307 303 299 296 291 288 283 279 274 271 270 269 267 265 264 263 260 259 258 258 259 257 256 253 250 248 247 246 246 247 247 247 249 250 251 253 252 252 254 256
314 311 310 307 303 299 295 290 288 285 281 278 275 271 270 269 267 266 265 263 260 259 258 258 259 260 259 257 255 252 250 249 249 248 248 248 249 251 252 252 253 255 256
312 310 309 306 303 299 295 292 288 286 283 280 278 276 274 271 270 267 266 266 264 264 262 262 261 260 260 260 260 259 258 256 256 255 253 252 252 252 253 254 255 256 257
311 310 307 306 304 300 297 293 290 288 285 283 281 278 277 275 274 273 272 271 269 268 268 268 267 266 265 264 264 263 263 263 262 260 259 258 257 257 258 258 259 260 261
309 308 306 305 303 302 299 295 291 288 287 285 284 282 280 279 277 276 275 273 271 270 269 268 267 266 266 265 265 265 266 266 265 264 264 263 263 262 262 261 260 260 260
309 307 306 305 303 302 300 296 294 292 290 288 287 286 284 284 283 281 279 277 276 274 273 271 270 269 268 268 267 266 266 265 265 265 265 265 264 264 265 265 265 266 266
308 307 306 305 304 301 299 297 296 294 293 292 290 289 289 288 286 284 283 281 279 277 276 274 272 272 270 269 269 269 268 268 268 268 268 268 268 268 268 268 268 269 269